GW5511 Weather Reports


time (UTC)temp
C
wind
direction
speed
KPH
gust
KPH
rain 1hr
cm
rain 24hr
cm
rain mn
cm
humidity
%
barometer
mb
20260906141657 28 352 0.0 0.0 0.00 0.00 0.00 87 1013.4
20260906141152 27 316 3.2 3.2 0.00 0.00 0.00 88 1013.6
20260906140651 27 303 3.2 3.2 0.00 0.00 0.00 88 1013.3
20260906140146 27 296 3.2 3.2 0.00 0.00 0.00 88 1013.5
20260906135643 27 313 6.4 8.0 0.00 0.00 0.00 89 1013.5
20260906135139 27 309 3.2 3.2 0.00 0.00 0.00 89 1013.4
20260906134635 27 359 1.6 1.6 0.00 0.00 0.00 90 1013.5
20260906134130 27 336 6.4 8.0 0.00 0.00 0.00 89 1013.4
20260906133626 27 340 0.0 1.6 0.00 0.00 0.00 89 1013.6
20260906133120 27 28 0.0 0.0 0.00 0.00 0.00 91 1013.4
20260906132615 26 329 3.2 3.2 0.00 0.00 0.00 93 1013.6
20260906132111 26 339 3.2 3.2 0.00 0.00 0.00 94 1013.6
20260906131607 25 326 1.6 3.2 0.00 0.00 0.00 95 1013.5
20260906131101 25 324 4.8 8.0 0.00 0.00 0.00 96 1013.4
20260906130555 25 357 3.2 3.2 0.00 0.00 0.00 98 1013.6
20260906130051 25 352 1.6 1.6 0.00 0.00 0.00 99 1013.4
20260906125548 24 6 0.0 0.0 0.00 0.00 0.00 99 1013.6
20260906125048 24 15 0.0 0.0 0.00 0.00 0.00 99 1013.5
20260906124543 23 22 0.0 0.0 0.00 0.00 0.00 99 1013.6
20260906124038 23 306 1.6 3.2 0.00 0.00 0.00 99 1013.6
20260906123537 23 17 0.0 1.6 0.00 0.00 0.00 99 1013.6
20260906123033 23 347 0.0 0.0 0.00 0.00 0.00 99 1013.5
20260906122532 23 15 1.6 1.6 0.00 0.00 0.00 99 1013.6
20260906122029 23 31 0.0 1.6 0.00 0.00 0.00 99 1013.4
20260906121525 23 14 0.0 0.0 0.00 0.00 0.00 99 1013.5
20260906121021 23 27 1.6 1.6 0.00 0.00 0.00 99 1013.6
20260906120516 23 23 0.0 1.6 0.00 0.00 0.00 99 1013.5
20260906120014 23 21 0.0 0.0 0.00 0.00 0.00 99 1013.6
20260906115514 23 21 1.6 1.6 0.00 0.00 0.00 99 1013.6
20260906115013 23 11 0.0 0.0 0.00 0.00 0.00 99 1013.5
20260906114508 23 18 1.6 1.6 0.00 0.00 0.00 99 1013.4
20260906114004 23 5 0.0 0.0 0.00 0.00 0.00 99 1013.1
20260906113502 23 16 0.0 0.0 0.00 0.00 0.00 99 1013.2
20260906112958 23 2 0.0 0.0 0.00 0.00 0.00 99 1013.2
20260906112453 23 330 0.0 0.0 0.00 0.00 0.00 99 1013.2
20260906111949 23 2 0.0 0.0 0.00 0.00 0.00 99 1013.2
20260906111448 23 42 1.6 1.6 0.00 0.00 0.00 99 1013.2
20260906110943 23 40 1.6 1.6 0.00 0.00 0.00 99 1013.1
20260906110439 22 18 0.0 0.0 0.00 0.00 0.00 99 1013.1
20260906105937 22 14 0.0 0.0 0.00 0.00 0.00 99 1013.1
20260906105433 22 24 0.0 0.0 0.00 0.00 0.00 99 1013.0
20260906104930 22 17 0.0 0.0 0.00 0.00 0.00 99 1012.9
20260906104428 22 21 0.0 0.0 0.00 0.00 0.00 99 1012.9
20260906103927 22 16 0.0 0.0 0.00 0.00 0.00 99 1012.9
20260906103426 22 9 0.0 0.0 0.00 0.00 0.00 99 1012.7
20260906102921 22 78 1.6 1.6 0.00 0.00 0.00 99 1012.7
20260906102421 23 163 1.6 3.2 0.00 0.00 0.00 99 1012.7
20260906101915 23 1 0.0 0.0 0.00 0.00 0.00 99 1012.7
20260906101411 23 12 0.0 0.0 0.00 0.00 0.00 99 1012.6
20260906100906 23 15 0.0 0.0 0.00 0.00 0.00 99 1012.7
20260906100406 23 10 0.0 0.0 0.00 0.00 0.00 99 1012.8
20260906095901 23 15 0.0 0.0 0.00 0.00 0.00 99 1012.7
20260906095356 22 10 0.0 0.0 0.00 0.00 0.00 99 1012.7
20260906094855 23 42 1.6 1.6 0.00 0.00 0.00 99 1012.8
20260906094351 23 30 0.0 1.6 0.00 0.00 0.00 99 1012.5
20260906093847 23 25 0.0 0.0 0.00 0.00 0.00 99 1012.7
20260906093343 23 6 0.0 0.0 0.00 0.00 0.00 99 1012.7
20260906092843 23 13 0.0 0.0 0.00 0.00 0.00 99 1012.7
20260906092337 23 7 0.0 0.0 0.00 0.00 0.00 99 1012.6
20260906091833 23 7 0.0 0.0 0.00 0.00 0.00 99 1012.7
20260906091329 23 11 0.0 1.6 0.00 0.00 0.00 99 1012.6
20260906090825 22 354 1.6 1.6 0.00 0.00 0.00 99 1012.5
20260906090324 22 1 0.0 0.0 0.00 0.00 0.00 99 1012.6
20260906085818 23 13 0.0 1.6 0.00 0.00 0.00 99 1012.3
20260906085317 22 16 0.0 0.0 0.00 0.00 0.00 99 1012.5
20260906084812 22 25 0.0 1.6 0.00 0.00 0.00 99 1012.4
20260906084312 22 25 1.6 1.6 0.00 0.00 0.00 99 1012.5
20260906083807 22 346 1.6 1.6 0.00 0.00 0.00 99 1012.4
20260906083302 22 15 0.0 1.6 0.00 0.00 0.00 99 1012.4
20260906082757 22 357 1.6 1.6 0.00 0.00 0.00 99 1012.4
20260906082252 22 14 1.6 1.6 0.00 0.00 0.00 99 1012.3
20260906081748 22 16 0.0 0.0 0.00 0.00 0.00 99 1012.4
20260906081243 22 23 1.6 1.6 0.00 0.00 0.00 99 1012.4
20260906080739 22 26 1.6 1.6 0.00 0.00 0.00 99 1012.2
20260906080236 22 33 1.6 1.6 0.00 0.00 0.00 99 1012.3
20260906075736 22 15 0.0 0.0 0.00 0.00 0.00 99 1012.3
20260906075235 23 16 1.6 1.6 0.00 0.00 0.00 99 1012.4
20260906074731 22 3 0.0 1.6 0.00 0.00 0.00 99 1012.3
20260906074230 23 16 0.0 1.6 0.00 0.00 0.00 99 1012.2
20260906073730 22 23 1.6 1.6 0.00 0.00 0.00 99 1012.3
20260906073225 22 11 0.0 0.0 0.00 0.00 0.00 99 1012.0
20260906072721 22 22 0.0 1.6 0.00 0.00 0.00 99 1012.1
20260906072216 23 24 1.6 1.6 0.00 0.00 0.00 99 1012.3
20260906071712 23 14 0.0 0.0 0.00 0.00 0.00 99 1012.3
20260906071212 23 42 1.6 1.6 0.00 0.00 0.00 99 1012.5
20260906070708 23 18 0.0 0.0 0.00 0.00 0.00 99 1012.3
20260906070204 23 15 0.0 0.0 0.00 0.00 0.00 99 1012.4
20260906065703 23 13 1.6 1.6 0.00 0.00 0.00 99 1012.5
20260906065159 23 16 1.6 1.6 0.00 0.00 0.00 99 1012.6
20260906064654 23 22 1.6 1.6 0.00 0.00 0.00 99 1012.6
20260906064149 23 18 0.0 0.0 0.00 0.00 0.00 99 1012.7
20260906063644 23 18 0.0 0.0 0.00 0.00 0.00 99 1012.6
20260906063140 23 16 0.0 1.6 0.00 0.00 0.00 99 1012.9
20260906062636 23 11 0.0 0.0 0.00 0.00 0.00 99 1012.8
20260906062134 23 49 1.6 1.6 0.00 0.00 0.00 99 1012.9
20260906061631 23 48 1.6 1.6 0.00 0.00 0.00 99 1012.7
20260906061130 23 9 0.0 0.0 0.00 0.00 0.00 99 1012.7
20260906060627 23 6 0.0 0.0 0.00 0.00 0.00 99 1012.9
20260906060125 23 89 1.6 1.6 0.00 0.00 0.00 99 1012.7
20260906055620 23 16 0.0 0.0 0.00 0.00 0.00 99 1013.0
20260906055115 23 16 0.0 1.6 0.00 0.00 0.00 99 1013.0
20260906054610 23 13 0.0 0.0 0.00 0.00 0.00 99 1012.9
20260906054105 23 9 0.0 0.0 0.00 0.00 0.00 99 1012.8
20260906053602 23 12 0.0 0.0 0.00 0.00 0.00 99 1012.8
20260906053057 23 23 1.6 1.6 0.00 0.00 0.00 99 1013.1
20260906052552 23 21 0.0 1.6 0.00 0.00 0.00 99 1013.0
20260906052049 23 17 0.0 0.0 0.00 0.00 0.00 99 1012.9
20260906051544 23 30 1.6 1.6 0.00 0.00 0.00 99 1013.0
20260906051040 24 132 3.2 3.2 0.00 0.00 0.00 99 1012.9
20260906050535 24 20 1.6 1.6 0.00 0.00 0.00 99 1013.0
20260906050030 24 6 0.0 0.0 0.00 0.00 0.00 99 1013.0
20260906045528 24 28 1.6 1.6 0.00 0.00 0.00 99 1013.2
20260906045024 25 359 0.0 1.6 0.00 0.00 0.00 99 1012.8
20260906044519 24 57 1.6 1.6 0.00 0.00 0.00 98 1012.7
20260906044015 24 17 0.0 0.0 0.00 0.00 0.00 98 1013.1
20260906043510 24 23 0.0 1.6 0.00 0.00 0.00 99 1013.2
20260906043007 24 7 0.0 0.0 0.00 0.00 0.00 99 1013.1
20260906042505 24 357 0.0 0.0 0.00 0.00 0.00 99 1013.3
20260906042005 24 18 1.6 1.6 0.00 0.00 0.00 99 1013.1
20260906041501 24 42 3.2 3.2 0.00 0.00 0.00 99 1013.1
20260906041001 25 23 1.6 1.6 0.00 0.00 0.00 99 1012.8
20260906040456 25 347 0.0 1.6 0.00 0.00 0.00 99 1012.7
20260906035952 24 2 0.0 0.0 0.00 0.43 0.43 99 1012.6
20260906035447 25 21 1.6 1.6 0.00 0.43 0.43 98 1012.6
20260906034943 25 4 1.6 1.6 0.00 0.43 0.43 98 1012.7
20260906034442 25 22 0.0 1.6 0.00 0.43 0.43 98 1012.7
20260906033938 25 14 0.0 0.0 0.00 0.43 0.43 98 1012.8
20260906033438 25 13 0.0 0.0 0.00 0.43 0.43 98 1013.0
20260906032934 25 15 1.6 3.2 0.00 0.43 0.43 98 1012.8
20260906032431 25 7 1.6 1.6 0.00 0.43 0.43 98 1012.8
20260906031930 25 330 1.6 1.6 0.00 0.43 0.43 98 1012.9
20260906031426 25 333 0.0 1.6 0.00 0.43 0.43 98 1013.2
20260906030921 25 5 0.0 0.0 0.00 0.43 0.43 98 1013.3
20260906030415 25 15 1.6 1.6 0.00 0.43 0.43 97 1013.6
20260906025910 25 21 1.6 1.6 0.00 0.43 0.43 97 1013.5
20260906025404 25 19 1.6 1.6 0.00 0.43 0.43 97 1013.5
20260906024903 25 25 1.6 1.6 0.00 0.43 0.43 97 1013.5
20260906024402 25 10 0.0 0.0 0.00 0.43 0.43 97 1013.6
20260906023858 25 18 1.6 1.6 0.00 0.43 0.43 97 1013.7
20260906023354 25 17 0.0 0.0 0.00 0.43 0.43 97 1013.8
20260906022854 25 25 0.0 0.0 0.00 0.43 0.43 97 1013.7
20260906022349 25 21 1.6 1.6 0.00 0.43 0.43 96 1013.9
20260906021845 25 24 1.6 1.6 0.00 0.43 0.43 96 1013.6
20260906021344 25 314 0.0 1.6 0.00 0.43 0.43 96 1013.7
20260906020839 25 27 0.0 1.6 0.00 0.43 0.43 98 1013.9
20260906020338 25 343 0.0 0.0 0.00 0.43 0.43 97 1013.9
20260906015834 25 11 0.0 0.0 0.00 0.43 0.43 97 1013.7
20260906015333 25 14 0.0 0.0 0.00 0.43 0.43 97 1013.7
20260906014832 25 7 0.0 0.0 0.00 0.43 0.43 97 1013.7
20260906014327 25 33 1.6 1.6 0.00 0.43 0.43 96 1013.5
20260906013824 25 288 6.4 8.0 0.00 0.43 0.43 98 1013.6
20260906013319 25 3 1.6 1.6 0.00 0.43 0.43 99 1013.5
20260906012815 25 11 0.0 0.0 0.00 0.43 0.43 99 1013.1
20260906012314 25 25 0.0 0.0 0.00 0.43 0.43 99 1012.9
20260906011809 25 10 1.6 1.6 0.00 0.43 0.43 99 1013.0
20260906011309 25 29 1.6 1.6 0.00 0.43 0.43 99 1012.7
20260906010805 25 30 0.0 1.6 0.00 0.43 0.43 98 1012.6
20260906010301 25 40 0.0 0.0 0.00 0.43 0.43 99 1012.4
20260906005756 25 53 1.6 1.6 0.00 0.43 0.43 99 1012.2
20260906005255 25 35 0.0 1.6 0.00 0.43 0.43 99 1012.1
20260906004754 26 16 0.0 0.0 0.00 0.43 0.43 99 1012.3
20260906004249 26 22 1.6 1.6 0.00 0.43 0.43 98 1012.4
20260906003749 26 18 1.6 1.6 0.00 0.43 0.43 98 1012.1
20260906003245 26 17 0.0 0.0 0.00 0.43 0.43 98 1012.0
20260906002740 26 33 0.0 1.6 0.00 0.43 0.43 98 1012.2
20260906002240 26 33 0.0 0.0 0.00 0.43 0.43 98 1012.2
20260906001736 26 25 1.6 1.6 0.00 0.43 0.43 98 1012.1
20260906001231 26 33 0.0 1.6 0.00 0.43 0.43 97 1011.9
20260906000726 26 25 0.0 0.0 0.00 0.43 0.43 97 1011.9
20260906000226 26 16 0.0 1.6 0.00 0.43 0.43 97 1012.0
20260905235721 26 20 0.0 1.6 0.00 0.43 0.43 97 1012.0
20260905235215 26 21 0.0 1.6 0.00 0.43 0.43 96 1012.1
20260905234711 26 19 0.0 0.0 0.00 0.43 0.43 95 1012.2
20260905234206 26 27 0.0 0.0 0.00 0.43 0.43 95 1012.2
20260905233701 26 22 0.0 0.0 0.00 0.43 0.43 95 1012.2
20260905233201 26 27 0.0 0.0 0.00 0.43 0.43 94 1012.0
20260905232656 26 22 0.0 1.6 0.00 0.43 0.43 94 1012.3
20260905232152 27 21 0.0 1.6 0.00 0.43 0.43 93 1012.2
20260905231647 27 53 1.6 1.6 0.00 0.43 0.43 92 1012.0
20260905231143 27 185 1.6 3.2 0.00 0.43 0.43 90 1012.2
20260905230638 27 310 0.0 0.0 0.00 0.43 0.43 89 1012.2
20260905230137 27 325 1.6 1.6 0.00 0.43 0.43 90 1012.3
20260905225636 27 240 1.6 3.2 0.00 0.43 0.43 88 1012.3
20260905225137 27 313 0.0 1.6 0.00 0.43 0.43 89 1012.4
20260905224636 27 305 1.6 1.6 0.00 0.43 0.43 87 1012.2
20260905224136 27 316 0.0 1.6 0.00 0.43 0.43 87 1012.3
20260905223633 27 327 0.0 0.0 0.00 0.43 0.43 89 1012.4
20260905223129 27 293 0.0 1.6 0.00 0.43 0.43 88 1012.4
20260905222625 27 291 3.2 3.2 0.00 0.43 0.43 88 1012.5
20260905222119 27 259 3.2 3.2 0.00 0.43 0.43 88 1012.5
20260905221615 27 231 3.2 3.2 0.00 0.43 0.43 88 1012.4
20260905221112 27 218 3.2 3.2 0.00 0.43 0.43 88 1012.4
20260905220607 27 239 3.2 3.2 0.00 0.43 0.43 86 1012.5
20260905220103 27 294 1.6 1.6 0.00 0.43 0.43 84 1012.3
20260905215602 27 225 4.8 4.8 0.00 0.43 0.43 85 1012.2
20260905215058 27 247 4.8 4.8 0.00 0.43 0.43 84 1012.1
20260905214554 28 339 3.2 3.2 0.00 0.43 0.43 82 1012.2
20260905214048 28 316 4.8 8.0 0.00 0.43 0.43 83 1012.4
20260905213543 27 328 0.0 0.0 0.00 0.43 0.43 84 1012.5
20260905213040 27 266 3.2 3.2 0.00 0.43 0.43 86 1012.4
20260905212540 27 288 3.2 3.2 0.00 0.43 0.43 86 1012.5
20260905212039 27 304 4.8 4.8 0.00 0.43 0.43 86 1012.5
20260905211534 27 318 0.0 0.0 0.00 0.43 0.43 85 1012.5
20260905211030 27 315 4.8 4.8 0.00 0.43 0.43 85 1012.5
20260905210526 27 314 1.6 1.6 0.00 0.43 0.43 85 1012.5
20260905210025 26 333 3.2 3.2 0.00 0.43 0.43 86 1012.5
20260905205525 27 337 1.6 3.2 0.00 0.43 0.43 86 1012.6
20260905205024 27 312 4.8 4.8 0.00 0.43 0.43 85 1012.7
20260905204519 26 332 1.6 1.6 0.00 0.43 0.43 86 1012.6
20260905204014 26 306 0.0 1.6 0.00 0.43 0.43 86 1012.7
20260905203509 26 350 0.0 0.0 0.00 0.43 0.43 87 1012.6
20260905203004 26 333 1.6 3.2 0.00 0.43 0.43 86 1012.8
20260905202500 26 339 0.0 1.6 0.00 0.43 0.43 87 1012.9
20260905201955 26 343 4.8 4.8 0.00 0.43 0.43 87 1012.7
20260905201450 26 8 0.0 0.0 0.00 0.43 0.43 90 1013.0
20260905200949 26 17 1.6 1.6 0.00 0.43 0.43 89 1012.9
20260905200446 25 7 1.6 1.6 0.00 0.43 0.43 89 1012.9
20260905195944 25 319 1.6 1.6 0.00 0.43 0.43 90 1013.3
20260905195439 25 123 1.6 1.6 0.00 0.43 0.43 90 1013.4
20260905194935 25 5 1.6 1.6 0.00 0.43 0.43 91 1013.3
20260905194434 25 23 0.0 1.6 0.00 0.43 0.43 92 1013.4
20260905193929 25 355 0.0 0.0 0.00 0.43 0.43 95 1013.5
20260905193424 25 315 0.0 1.6 0.00 0.43 0.43 97 1013.9
20260905192919 25 178 4.8 4.8 0.00 0.43 0.43 99 1014.2
20260905192415 25 148 4.8 4.8 0.00 0.43 0.43 99 1014.5
20260905191915 25 182 6.4 8.0 0.00 0.43 0.43 99 1014.8
20260905191413 24 192 3.2 4.8 0.00 0.43 0.43 99 1014.7
20260905190908 24 178 8.0 9.7 0.00 0.43 0.43 99 1015.1
20260905190406 24 174 8.0 11.3 0.00 0.43 0.43 99 1015.5
20260905185905 25 177 3.2 3.2 0.00 0.43 0.43 99 1015.4
20260905185400 24 44 0.0 0.0 0.00 0.43 0.43 99 1015.3
20260905184859 25 70 4.8 4.8 0.00 0.43 0.43 99 1015.3
20260905184358 25 186 4.8 8.0 0.00 0.43 0.43 99 1015.1
20260905183856 25 133 3.2 3.2 0.00 0.43 0.43 99 1014.9
20260905183352 25 166 6.4 8.0 0.00 0.43 0.43 99 1014.7
20260905182847 25 173 1.6 1.6 0.00 0.43 0.43 99 1014.6
20260905182347 25 235 4.8 9.7 0.00 0.43 0.43 97 1014.6
20260905181837 25 95 1.6 3.2 0.00 0.43 0.43 96 1014.6
20260905181336 25 316 0.0 0.0 0.00 0.43 0.43 96 1014.7
20260905180835 25 354 3.2 3.2 0.00 0.43 0.43 96 1014.9
20260905180331 25 300 4.8 8.0 0.00 0.43 0.43 96 1014.8
20260905175825 25 327 8.0 9.7 0.00 0.43 0.43 96 1015.0
20260905175320 25 272 4.8 4.8 0.00 0.43 0.43 98 1014.9
20260905174815 25 1 4.8 4.8 0.00 0.43 0.43 98 1014.9
20260905174311 25 162 1.6 3.2 0.00 0.43 0.43 97 1014.7
20260905173807 25 212 4.8 4.8 0.18 0.43 0.43 97 1014.5
20260905173303 25 246 4.8 4.8 0.18 0.43 0.43 97 1014.8
20260905172803 25 131 4.8 4.8 0.00 0.41 0.41 98 1014.9
20260905172300 25 349 0.0 1.6 0.30 0.41 0.41 99 1015.0
20260905171757 25 82 3.2 3.2 0.89 0.41 0.41 98 1015.1
20260905171253 25 84 3.2 3.2 0.89 0.36 0.36 97 1015.0
20260905170749 25 31 0.0 0.0 0.79 0.25 0.25 96 1015.1
20260905170245 25 258 3.2 4.8 0.48 0.20 0.20 95 1015.3
20260905165743 26 188 6.4 11.3 0.48 0.15 0.15 93 1015.1
20260905165240 27 73 1.6 3.2 0.79 0.13 0.13 90 1014.9
20260905164739 28 72 3.2 3.2 0.48 0.08 0.08 87 1015.4
20260905164234 30 81 3.2 3.2 0.00 0.00 0.00 84 1015.4
20260905163730 30 205 4.8 8.0 0.00 0.00 0.00 83 1015.0
20260905163226 30 125 1.6 1.6 0.00 0.00 0.00 84 1015.1
20260905162722 30 213 11.3 12.9 0.00 0.00 0.00 82 1015.0
20260905162221 30 198 8.0 9.7 0.00 0.00 0.00 82 1015.1
20260905161716 30 234 9.7 11.3 0.00 0.00 0.00 83 1014.9
20260905161215 30 188 9.7 11.3 0.00 0.00 0.00 82 1015.2
20260905160713 30 155 6.4 8.0 0.00 0.00 0.00 82 1015.2
20260905160208 30 157 4.8 4.8 0.00 0.00 0.00 83 1015.3
20260905155708 30 246 4.8 4.8 0.00 0.00 0.00 83 1015.1
20260905155207 30 268 1.6 3.2 0.00 0.00 0.00 83 1015.0
20260905154702 29 256 1.6 3.2 0.00 0.00 0.00 85 1015.0
20260905154157 29 196 4.8 4.8 0.00 0.00 0.00 86 1015.1
20260905153653 29 223 6.4 8.0 0.00 0.00 0.00 85 1015.1
20260905153148 28 299 0.0 1.6 0.00 0.00 0.00 87 1015.3
20260905152642 28 280 4.8 4.8 0.00 0.00 0.00 87 1015.1
20260905152137 28 284 1.6 1.6 0.00 0.00 0.00 88 1015.1
20260905151632 28 295 1.6 1.6 0.00 0.00 0.00 88 1015.3
20260905151128 28 165 6.4 8.0 0.00 0.00 0.00 89 1015.1
20260905150623 28 306 0.0 0.0 0.00 0.00 0.00 88 1015.1
20260905150121 27 146 4.8 4.8 0.00 0.00 0.00 90 1015.6
20260905145620 27 229 3.2 3.2 0.00 0.00 0.00 90 1015.5
20260905145119 27 173 3.2 3.2 0.00 0.00 0.00 90 1015.2
20260905144614 27 219 3.2 3.2 0.00 0.00 0.00 92 1015.4
20260905144114 27 165 3.2 3.2 0.00 0.00 0.00 91 1015.4
20260905143614 27 268 1.6 1.6 0.00 0.00 0.00 90 1015.3
20260905143108 27 344 0.0 0.0 0.00 0.00 0.00 90 1015.3
20260905142608 27 167 1.6 1.6 0.00 0.00 0.00 91 1015.3